Location: Étang Rond
(42.7927°N, 1.0661°E)
Time: 23:08:16
(UTC+00:00)

Cosmos 2292 Rocket - Pass Details

Date: 08 November 2025
Orbit: 369 x 1243 km, 83.0° (Epoch: 13 December)

Event Time Altitude Azimuth Distance (km) Brightness Sun altitude
Rises 05:15:31 0° 192° (SSW) 2,606 6.7 -15.5°
Reaches altitude 10° 05:17:25 10° 195° (SSW) 1,825 5.9 -15.2°
Maximum altitude 05:21:24 71° 279° (W) 692 3.6 -14.5°
Drops below altitude 10° 05:26:38 10° 4° (N) 2,370 6.5 -13.5°
Sets 05:29:22 0° 7° (N) 3,463 7.4 -13.0°
